Flag for USA

Past Weather in Manchester, New Hampshire, USA — Yesterday and Last 2 Weeks

Now
90 °F

Partly sunny.


Feels Like: 91 °F
Forecast: 87 / 72 °F
Wind: 14 mph from West

Location: Manchester Airport

Current Time: Jul 12, 2020 at 4:40:30 pm

Latest Report: Jul 12, 2020 at 3:53 pm


Visibility: 10 mi

Pressure: 29.61 "Hg

Humidity: 42%

Dew Point: 64 °F

Location of ManchesterLocation

Past Weather in Manchester — Graph

°F

Manchester Temperature Yesterday

Maximum temperature yesterday: 92 °F (at 3:53 pm)
Minimum temperature yesterday: 73 °F (at 12:24 am)
Average temperature yesterday: 80 °F

High & Low Weather Summary for the Past Weeks

 TemperatureHumidityPressure
High93 °F (Jul 2, 3:53 pm)100% (Jul 2, 5:37 am)30.19 "Hg (Jul 2, 5:37 am)
Low63 °F (Jun 28, 5:53 am)33% (Jul 4, 4:53 pm)29.57 "Hg (Jul 12, 4:08 am)
Average74 °F77%29.89 "Hg
* Reported Jun 27 3:53 pm — Jul 12 2:53 pm, Manchester. Weather by CustomWeather, © 2020

Note: Actual official high and low records may vary slightly from our data, if they occured in-between our weather recording intervals... More about our weather records

Manchester Weather History for the Previous 24 Hours

Scroll right to see more
 ConditionsComfort  
Time TempWeatherWind HumidityBarometerVisibility
2:53 pm
Sun, Jul 12
89 °FBroken clouds.12 mph45%29.61 "Hg10 mi
1:53 pm86 °FPartly sunny.9 mph51%29.62 "Hg10 mi
12:53 pm84 °FPartly sunny.14 mph53%29.62 "Hg10 mi
11:53 am83 °FPartly sunny.12 mph57%29.63 "Hg10 mi
10:53 am82 °FPartly sunny.10 mph60%29.62 "Hg10 mi
9:53 am81 °FPartly sunny.16 mph60%29.61 "Hg10 mi
8:53 am80 °FPartly sunny.10 mph64%29.59 "Hg10 mi
7:53 am78 °FPassing clouds.14 mph71%29.58 "Hg10 mi
6:53 am75 °FPassing clouds.12 mph82%29.58 "Hg10 mi
5:53 am74 °FPassing clouds.9 mph85%29.59 "Hg10 mi
4:53 am75 °FPassing clouds.8 mph85%29.59 "Hg10 mi
4:08 am75 °FPassing clouds.9 mph88%29.57 "Hg10 mi
3:53 am75 °FPassing clouds.9 mph88%29.58 "Hg10 mi
2:53 am76 °FPassing clouds.10 mph88%29.59 "Hg10 mi
1:53 am77 °FPassing clouds.10 mph85%29.61 "Hg10 mi
1:21 am78 °FPassing clouds.9 mph82%29.59 "Hg10 mi
12:53 am79 °FPassing clouds.10 mph79%29.62 "Hg10 mi
11:53 pm
Sat, Jul 11
80 °FMostly cloudy.13 mph76%29.63 "Hg10 mi
10:53 pm81 °FMostly cloudy.14 mph74%29.64 "Hg10 mi
9:53 pm82 °FPassing clouds.13 mph72%29.65 "Hg10 mi
9:16 pm82 °FPassing clouds.13 mph70%29.64 "Hg10 mi
8:53 pm83 °FPassing clouds.20 mph68%29.65 "Hg10 mi
7:53 pm85 °FScattered clouds.14 mph63%29.65 "Hg10 mi
6:53 pm88 °FPassing clouds.18 mph54%29.64 "Hg10 mi
5:53 pm90 °FScattered clouds.17 mph50%29.64 "Hg10 mi
4:53 pm92 °FScattered clouds.16 mph47%29.65 "Hg10 mi
Weather by CustomWeather, © 2020

See weather overview